Hourly Weather Celestynow

Today, 19 June, Saturday

Time Temperature Precipitation Wind Pressure Humidity
00:00 +19°C° 0 mm 3 mps 752 mmHg 84%
01:00 +19°C° 0 mm 3 mps 752 mmHg 86%
02:00 +18°C° 0 mm 2 mps 752 mmHg 87%
03:00 +18°C° 0 mm 2 mps 752 mmHg 88%
04:00 +18°C° 0 mm 2 mps 752 mmHg 89%
05:00 +20°C° 0 mm 3 mps 752 mmHg 82%
06:00 +22°C° 0 mm 3 mps 752 mmHg 75%
07:00 +24°C° 0 mm 3 mps 752 mmHg 68%
08:00 +26°C° 0 mm 3 mps 752 mmHg 65%
09:00 +27°C° 0 mm 4 mps 751 mmHg 61%
10:00 +29°C° 0 mm 4 mps 751 mmHg 57%
11:00 +29°C° 0 mm 4 mps 751 mmHg 55%
12:00 +30°C° 0 mm 4 mps 751 mmHg 53%
13:00 +32°C° 0 mm 4 mps 751 mmHg 50%
14:00 +30°C° 0 mm 4 mps 750 mmHg 55%
15:00 +29°C° 0 mm 4 mps 750 mmHg 60%
16:00 +28°C° 0 mm 4 mps 750 mmHg 65%
17:00 +27°C° 0.1 mm 4 mps 750 mmHg 68%
18:00 +26°C° 0.1 mm 4 mps 750 mmHg 71%
19:00 +25°C° 0.1 mm 4 mps 750 mmHg 75%
20:00 +23°C° 0 mm 4 mps 750 mmHg 78%
21:00 +22°C° 0 mm 3 mps 750 mmHg 82%
22:00 +21°C° 0 mm 3 mps 750 mmHg 85%
23:00 +20°C° 0 mm 3 mps 750 mmHg 87%

Tomorrow, 20 June, Sunday

Time Temperature Precipitation Wind Pressure Humidity
00:00 +19°C° 0 mm 3 mps 750 mmHg 90%
01:00 +19°C° 0 mm 3 mps 750 mmHg 93%
02:00 +18°C° 0 mm 3 mps 750 mmHg 93%
03:00 +18°C° 0 mm 3 mps 749 mmHg 94%
04:00 +18°C° 0 mm 3 mps 749 mmHg 94%
05:00 +19°C° 0 mm 3 mps 749 mmHg 87%
06:00 +21°C° 0 mm 3 mps 749 mmHg 79%
07:00 +23°C° 0 mm 4 mps 749 mmHg 71%
08:00 +25°C° 0 mm 4 mps 749 mmHg 66%
09:00 +26°C° 0 mm 4 mps 749 mmHg 60%
10:00 +28°C° 0 mm 4 mps 749 mmHg 54%
11:00 +28°C° 0 mm 4 mps 749 mmHg 53%
12:00 +29°C° 0 mm 4 mps 748 mmHg 51%
13:00 +30°C° 0 mm 4 mps 748 mmHg 49%
14:00 +30°C° 0 mm 4 mps 748 mmHg 51%
15:00 +30°C° 0 mm 4 mps 747 mmHg 53%
16:00 +29°C° 0 mm 4 mps 747 mmHg 55%
17:00 +28°C° 0 mm 4 mps 747 mmHg 62%
18:00 +27°C° 0 mm 4 mps 747 mmHg 69%
19:00 +26°C° 0 mm 4 mps 747 mmHg 76%
20:00 +24°C° 0 mm 3 mps 747 mmHg 81%
21:00 +22°C° 0 mm 3 mps 747 mmHg 86%
22:00 +21°C° 0 mm 3 mps 746 mmHg 91%
23:00 +21°C° 0 mm 3 mps 746 mmHg 92%

Day after tomorrow, 21 June, Monday

Time Temperature Precipitation Wind Pressure Humidity
00:00 +20°C° 0 mm 3 mps 746 mmHg 92%
01:00 +20°C° 0 mm 3 mps 746 mmHg 92%
02:00 +19°C° 0 mm 3 mps 746 mmHg 92%
03:00 +19°C° 0 mm 3 mps 746 mmHg 92%
04:00 +19°C° 0 mm 3 mps 746 mmHg 92%
05:00 +20°C° 0 mm 3 mps 745 mmHg 86%
06:00 +21°C° 0 mm 4 mps 745 mmHg 79%
07:00 +23°C° 0 mm 5 mps 745 mmHg 73%
08:00 +25°C° 0 mm 5 mps 745 mmHg 68%
09:00 +27°C° 0 mm 5 mps 745 mmHg 64%
10:00 +28°C° 0 mm 5 mps 745 mmHg 59%
11:00 +28°C° 0 mm 5 mps 745 mmHg 58%
12:00 +29°C° 0 mm 5 mps 745 mmHg 57%
13:00 +29°C° 0 mm 4 mps 744 mmHg 56%
14:00 +29°C° 0 mm 5 mps 744 mmHg 57%
15:00 +29°C° 0 mm 5 mps 744 mmHg 58%
16:00 +29°C° 0 mm 5 mps 744 mmHg 59%
17:00 +28°C° 0 mm 5 mps 744 mmHg 64%
18:00 +27°C° 0 mm 4 mps 744 mmHg 69%
19:00 +26°C° 0 mm 3 mps 744 mmHg 74%
20:00 +25°C° 0.2 mm 3 mps 744 mmHg 80%
21:00 +24°C° 0.2 mm 3 mps 744 mmHg 85%
22:00 +21°C° 0.2 mm 3 mps 744 mmHg 91%
23:00 +21°C° 0 mm 3 mps 744 mmHg 91%

22 June, Tuesday

Time Temperature Precipitation Wind Pressure Humidity
00:00 +21°C° 0 mm 3 mps 744 mmHg 92%
01:00 +20°C° 0 mm 3 mps 744 mmHg 93%
02:00 +20°C° 0 mm 2 mps 744 mmHg 93%
03:00 +20°C° 0 mm 2 mps 744 mmHg 93%
04:00 +20°C° 0 mm 2 mps 744 mmHg 93%
05:00 +23°C° 0 mm 2 mps 744 mmHg 87%
06:00 +24°C° 0 mm 3 mps 745 mmHg 82%
07:00 +25°C° 0 mm 3 mps 745 mmHg 76%
08:00 +26°C° 0.1 mm 3 mps 745 mmHg 71%
09:00 +28°C° 0.1 mm 3 mps 745 mmHg 65%
10:00 +29°C° 0.1 mm 3 mps 745 mmHg 59%
11:00 +29°C° 0.5 mm 2 mps 745 mmHg 59%
12:00 +30°C° 0.5 mm 2 mps 746 mmHg 58%
13:00 +30°C° 0.5 mm 2 mps 746 mmHg 58%
14:00 +29°C° 0.6 mm 2 mps 746 mmHg 61%
15:00 +29°C° 0.6 mm 2 mps 746 mmHg 65%
16:00 +28°C° 0.6 mm 1 mps 746 mmHg 68%
17:00 +28°C° 0.2 mm 1 mps 746 mmHg 70%
18:00 +27°C° 0.2 mm 1 mps 746 mmHg 73%
19:00 +26°C° 0.2 mm 1 mps 746 mmHg 75%
20:00 +25°C° 0.1 mm 1 mps 746 mmHg 78%
21:00 +24°C° 0.1 mm 1 mps 746 mmHg 82%
22:00 +23°C° 0.1 mm 1 mps 747 mmHg 85%
23:00 +23°C° 0 mm 1 mps 747 mmHg 86%

23 June, Wednesday

Time Temperature Precipitation Wind Pressure Humidity
00:00 +22°C° 0 mm 1 mps 747 mmHg 87%
01:00 +21°C° 0 mm 2 mps 747 mmHg 88%
02:00 +21°C° 0 mm 2 mps 747 mmHg 89%
03:00 +21°C° 0 mm 2 mps 747 mmHg 90%
04:00 +20°C° 0 mm 2 mps 747 mmHg 91%
05:00 +23°C° 0 mm 2 mps 747 mmHg 85%
06:00 +24°C° 0 mm 2 mps 747 mmHg 80%
07:00 +26°C° 0 mm 2 mps 747 mmHg 74%
08:00 +27°C° 0.2 mm 3 mps 747 mmHg 68%
09:00 +29°C° 0.2 mm 3 mps 747 mmHg 63%
10:00 +30°C° 0.2 mm 3 mps 747 mmHg 57%
11:00 +31°C° 0 mm 3 mps 747 mmHg 54%
12:00 +31°C° 0 mm 3 mps 747 mmHg 51%
13:00 +33°C° 0 mm 3 mps 747 mmHg 48%
14:00 +31°C° 0 mm 3 mps 747 mmHg 53%
15:00 +30°C° 0 mm 2 mps 747 mmHg 58%
16:00 +29°C° 0 mm 2 mps 747 mmHg 64%
17:00 +28°C° 0.5 mm 2 mps 747 mmHg 69%
18:00 +27°C° 0.5 mm 2 mps 747 mmHg 74%
19:00 +26°C° 0.5 mm 2 mps 748 mmHg 79%
20:00 +25°C° 0.2 mm 3 mps 748 mmHg 84%
21:00 +22°C° 0.2 mm 3 mps 748 mmHg 90%
22:00 +21°C° 0.2 mm 3 mps 749 mmHg 95%
23:00 +21°C° 0 mm 3 mps 749 mmHg 95%

24 June, Thursday

Time Temperature Precipitation Wind Pressure Humidity
00:00 +20°C° 0 mm 4 mps 749 mmHg 95%
01:00 +20°C° 0 mm 4 mps 749 mmHg 95%
02:00 +19°C° 0 mm 3 mps 749 mmHg 94%
03:00 +19°C° 0 mm 3 mps 749 mmHg 93%
04:00 +18°C° 0 mm 3 mps 750 mmHg 92%
05:00 +19°C° 0 mm 3 mps 750 mmHg 90%
06:00 +19°C° 0 mm 2 mps 750 mmHg 88%
07:00 +19°C° 0 mm 2 mps 750 mmHg 86%
08:00 +21°C° 0 mm 1 mps 750 mmHg 80%
09:00 +23°C° 0 mm 1 mps 750 mmHg 75%
10:00 +24°C° 0 mm 1 mps 750 mmHg 70%
11:00 +25°C° 0 mm 1 mps 750 mmHg 66%
12:00 +27°C° 0 mm 1 mps 749 mmHg 61%
13:00 +28°C° 0 mm 1 mps 749 mmHg 57%
14:00 +28°C° 0 mm 2 mps 749 mmHg 56%
15:00 +29°C° 0 mm 2 mps 749 mmHg 55%
16:00 +29°C° 0 mm 2 mps 748 mmHg 54%
17:00 +28°C° 0 mm 2 mps 748 mmHg 60%
18:00 +27°C° 0 mm 2 mps 748 mmHg 67%
19:00 +26°C° 0 mm 2 mps 747 mmHg 73%
20:00 +24°C° 1.9 mm 2 mps 748 mmHg 80%
21:00 +23°C° 1.9 mm 2 mps 748 mmHg 87%
22:00 +21°C° 1.9 mm 3 mps 748 mmHg 93%
23:00 +20°C° 2.9 mm 3 mps 748 mmHg 91%
Show more

We Need Your Consent

Meteoprog and our Service Providers may store and access personal data such as cookies, device identifiers or other similar technologies on your device and process such data to personalise content and ads, as well as provide social media features and to analyse the traffic.

  • Store and/or access information on your device

    Cookies, device identifiers or other information can be stored or accessed on your device for the purposes indicated above.

  • Personalised ads and content, ad and content measurement, audience insights, and products development

    Ads and content can be personalised based on a profile. More data can be added to better personalise ads and content. Ad and content performance can be measured. Insights about the audience who saw the ads and content can be derived. Such data can be used to develop or improve user’s experience, systems and software.

By clicking ‘I Agree’ you will allow the use of indicated cookies, device identifiers, web beacons or other similar technologies. Your settings can be changed in the browser on your device.

For certain purposes, legitimate interests may be relied on, rather than consent. You can read more about this in our Privacy and Cookie Policy.